Regional Weather Roundup
Issued by NWS

Home | Current Version | Previous Version | Text Only | Print | Product List | Glossary Off
Versions: 1 2 3 4 5 6 7 8 9 10 11 12 13 14 15 16 17 18 19 20 21 22 23 24 25 26 27

000
ASUS45 KCYS 280210
RWRWY

WYOMING REGIONAL WEATHER ROUNDUP
NATIONAL WEATHER SERVICE CHEYENNE WY
800 PM MDT TUE JUN 27 2017

NOTE:  "FAIR" INDICATES FEW OR NO CLOUDS BELOW 12,000 FEET
WITH NO SIGNIFICANT WEATHER AND/OR OBSTRUCTIONS TO VISIBILITY.

WYZ001-280300-
YELLOWSTONE NATIONAL PARK

CITY           SKY/WX    TMP DP  RH WIND       PRES   REMARKS
LK YELLOWSTONE   N/A     48  47  96 CALM      30.16F
W YELLOWSTONE  NOT AVBL

$$
WYZ002>013-054>058-071-098>099-280300-
NORTHERN WYOMING

CITY           SKY/WX    TMP DP  RH WIND       PRES   REMARKS
JACKSON        PTSUNNY   61  46  59 N13       30.04R
CODY           FAIR      68  42  38 W10G21    29.93R
GREYBULL       FAIR      74  43  32 W10       29.84R
WORLAND        FAIR      71  45  39 NW14      29.86R
SHERIDAN       MOCLDY    70  47  43 NW14      29.82R
BUFFALO        FAIR      63  49  60 NW8       29.87R
GILLETTE       FAIR      66  55  67 W12       29.80R
NEWCASTLE      FAIR      70  45  40 N20G26    29.81R

$$
WYZ014>020-022>026-101>103-280300-
CENTRAL WYOMING

CITY           SKY/WX    TMP DP  RH WIND       PRES   REMARKS
BIG PINEY      FAIR      68  38  33 NW15      30.05R
PINEDALE       NOT AVBL
DUBOIS         NOT AVBL
LANDER         FAIR      66  41  40 NW9       29.98R
RIVERTON       FAIR      67  38  34 NW21G28   29.94F
CASPER         FAIR      70  38  31 W13       29.91R
DOUGLAS        FAIR      69  44  40 W8        29.87F

$$
WYZ021-027>030-104>119-280300-
SOUTHERN WYOMING

CITY           SKY/WX    TMP DP  RH WIND       PRES   REMARKS
EVANSTON       FAIR      71  33  24 W12       30.07S
KEMMERER         N/A     70  32  24 W15G23    30.07F
FORT BRIDGER   FAIR      75  24  15 W21G28    30.09R
ROCK SPRINGS   FAIR      73  35  25 NW22      30.01R
RAWLINS        FAIR      65  43  44 NE8       30.03R
LARAMIE        LGT RAIN  61  40  45 W8        30.04R
CHEYENNE       FAIR      67  41  38 NW23G39   29.95R
TORRINGTON     FAIR      75  41  29 NW20G25   29.80F
PINE BLUFFS    FAIR      77  34  20 N18G36    29.78F

$$




USA.gov is the U.S. government's official web portal to all federal, state and local government web resources and services.